sat.trackr.live / text

‹ back to catalog

STARLINK-11390 [DTC]

NORAD 61947 · 2024-209J

PAYLOAD ACTIVE UNKNOWN

§ Identity

Operator
Country
US
Launch date
2024-11-14
Launch site
AFWTR
Launch vehicle
Mass (kg)
RCS (m²)

Purposes: comms

External: N2YO · Heavens-Above · Gunter

§ Orbital elements

Epoch: 2026-05-25T00:10:16.177152Z

Period
91.73 min
Inclination
53.1576°
Eccentricity
0.0001529
Mean motion
15.69758553 rev/d
Perigee alt
358.6 km
Apogee alt
360.6 km
Semi-major
6,737.7 km
B*
1.1985e-3
RAAN
355.1051°
Arg perigee
38.5382°
Mean anomaly
321.5745°
Rev number
8,870

§ Raw data

STARLINK-11390 [DTC]1 61947U 24209J   26145.00713168  .00147515  00000+0  11985-2 0  99962 61947  53.1576 355.1051 0001529  38.5382 321.5745 15.69758553 88706

JSON: /api/v1/satellites/61947 · /tle

For live sub-satellite position, see the globe view (requires WebGL).

§ Visibility from observer

Set your observer location to see the next 7 days of passes ≥ 10°. The values pass through the URL so the page stays shareable.

No JS? Fill the form by hand. The geolocation button needs JavaScript.